Retour au catalogue

STARLINK-36856

ActifCommunicationsSSO
NORAD 67883·PAYLOAD·🇺🇸 United States

Lancé Feb 21, 2026 depuis Vandenberg Space Force Base

Loading…

Prochains Passages (prochaines 24 heures)

TLE

FraisSource: CelesTrak SupGP

Époque: Sep 15, 2026, 03:34 UTC

1 67883C 26035E   26258.14909722  .00095686  00000+0  29703-2 0  2589
2 67883  97.2851 190.0529 0001965  97.6646 188.4943 15.33389654    16

Suivez STARLINK-36856 en temps réel avec AllMySat

Download on the App Store